POLYTECH-UNIVERSE 3 (R*)

Last updated on Mon Sep 21 2026 00:03:14 GMT+0000 (Coordinated Universal Time)

1 57191U 23091AB 26263.56289919 .00003177 00000+0 15093-3 0 9994 2 57191 97.4948 320.7297 0015964 151.9832 208.2265 15.19856242178431
UTC large
Height (km)
Speed (km/s)
/
Latitude / Longitude
Inclination (degrees)
Orbital Period (minutes)
Azimuth
Elevation
Range (km)
Doppler Factor

Next 0 passes for location: London (51.5072 / 0.1276)

No passes found over London.
POLYTECH-UNIVERSE 3 (R*)